Flag for U.S.A. Weather past 2 weeks in Oxnard, California, U.S.A.

Now
75 °F

Sunny.


Feels Like: 77 °F
Forecast: 66 / 77 °F
Wind: 10 mph from West

Location: Oxnard Airport

Current Time: Aug 1, 2015 at 3:23:45 PM

Latest Report: Aug 1, 2015 at 1:51 PM


Visibility: 10 mi

Pressure: 29.94 "Hg

Humidity: 66%

Dew point: 63 °F

Location of OxnardLocation

Historic Weather in Oxnard — Graph

°F

Oxnard temperature yesterday

Maximum temperature yesterday: 77 °F (at 3:51 PM)
Minimum temperature yesterday: 66 °F (at 12:51 AM)
Average temperature yesterday: 70 °F

Past Weeks' High & Low Weather Summary

 TemperatureHumidityPressure
High81 °F (Jul 19, 1:51 PM)100% (Jul 21, 12:58 AM)30.08 "Hg (Jul 21, 12:58 AM)
Low59 °F (Jul 18, 4:51 AM)50% (Jul 25, 12:51 PM)29.80 "Hg (Jul 17, 5:51 PM)
Average70 °F80%29.94 "Hg
* Reported Jul 17 1:51 PM — Aug 1 1:51 PM, Oxnard, Weather by CustomWeather, © 2015

Note: Actual official high and low records may vary slightly from our data, if they occured in-between our weather recording intervals... More about our weather records

Advertising

Oxnard weather history for previous 24 hours

 ConditionsComfort  
Time TempWeatherWind HumidityBarometerVisibility
1:51 PM
Sat, Aug 1
75 °FSunny.10 mph66%29.94 "Hg10 mi
12:51 PM75 °FSunny.10 mph66%29.95 "Hg10 mi
11:51 AM72 °FOvercast.8 mph73%29.97 "Hg10 mi
10:51 AM72 °FOvercast.9 mph73%29.98 "Hg8 mi
9:51 AM69 °FOvercast.3 mph81%29.98 "Hg8 mi
8:51 AM68 °FPartly sunny.3 mph82%29.98 "Hg8 mi
7:51 AM66 °FLow clouds.3 mph90%29.98 "Hg7 mi
6:51 AM66 °FLow clouds.3 mph90%29.97 "Hg7 mi
5:51 AM66 °FFog.No wind93%29.96 "Hg6 mi
4:51 AM66 °FFog.No wind93%29.94 "Hg6 mi
3:51 AM66 °FLow clouds.3 mph93%29.95 "Hg7 mi
2:51 AM65 °FFog.No wind94%29.95 "Hg6 mi
1:51 AM65 °FFog.No wind94%29.95 "Hg6 mi
12:51 AM66 °FFog.3 mph90%29.95 "Hg6 mi
11:51 PM
Fri, Jul 31
67 °FPassing clouds.6 mph90%29.95 "Hg7 mi
10:51 PM68 °FLow clouds.5 mph87%29.96 "Hg8 mi
9:51 PM68 °FLow clouds.7 mph87%29.96 "Hg9 mi
8:58 PM68 °FLow clouds.13 mph84%29.97 "Hg9 mi
7:51 PM68 °FPartly sunny.13 mph84%29.95 "Hg8 mi
6:51 PM71 °FPassing clouds.17 mph78%29.94 "Hg8 mi
5:51 PM73 °FSunny.15 mph74%29.94 "Hg9 mi
4:51 PM76 °FScattered clouds.14 mph72%29.95 "Hg7 mi
3:51 PM77 °FSunny.10 mph64%29.97 "Hg10 mi
Weather by CustomWeather, © 2015

See weather overviewHow to use our weather pages